Weather History for Lumberton, NC

Change the Weather History Date:

Thursday, July 18, 2013

  Actual Average Record
Temperature  
Mean Temperature 84 °F 81 °F  
Max Temperature 93 °F 91 °F 97 °F (2007)
Min Temperature 75 °F 72 °F 66 °F (2000)
Degree Days  
Heating Degree Days 0 0  
Month to date heating degree days 0 0  
Since 1 June heating degree days 0 0  
Since 1 July heating degree days 0 0  
Cooling Degree Days 19 16  
Month to date cooling degree days 281 288  
Year to date cooling degree days 874 926  
Since 1 June cooling degree days 682 676  
Growing Degree Days 34 (Base 50)    
Moisture  
Dew Point 73 °F    
Average Humidity 73    
Maximum Humidity 100    
Minimum Humidity 46    
Precipitation  
Precipitation 0.00 in 0.20 in 0.80 in (2010)
Month to date precipitation 5.20 2.90  
Year to date precipitation 30.39 22.31  
Sea Level Pressure  
Sea Level Pressure 30.11 in    
Wind  
Wind Speed 3 mph (SSW)    
Max Wind Speed 9 mph    
Max Gust Speed 14 mph    
Visibility 8 miles    
Events      
T = Trace of Precipitation, MM = Missing Value Source: NWS Daily Summary

Daily Weather History Graph

Daily Weather History Graph

Search for Another Location

Airport:

Trip Planner

Search our weather history database for the weather conditions in past years. The results will help you decide how hot, cold, wet, or windy it might be!

Date:

Astronomy

Jul. 18, 2013 Rise Set
Actual Time 6:16 AM EDT 8:27 PM EDT
Civil Twilight 5:48 AM EDT 8:56 PM EDT
Nautical Twilight 5:13 AM EDT 9:31 PM EDT
Astronomical Twilight 4:35 AM EDT 10:09 PM EDT
Moon 4:24 PM EDT (7/18) 2:03 AM EDT (7/18)
Length of Visible Light 15h 08m
Length of Day
14h 11m
Waxing Gibbous, 77% of the Moon is Illuminated
Jul 18
Waxing Gibbous
Jul 22
Full
Jul 29
Last Quarter
Aug 6
New
Aug 14
First Quarter

Hourly Weather History & Observations

Time (EDT) Temp. Heat Index Dew Point Humidity Pressure Visibility Wind Dir Wind Speed Gust Speed Precip Events Conditions
12:54 AM 78.1 °F - 73.9 °F 87% 30.15 in 8.0 mi Calm Calm - N/A   Overcast
1:54 AM 78.1 °F - 75.0 °F 90% 30.14 in 8.0 mi Calm Calm - N/A   Overcast
2:54 AM 75.9 °F - 75.0 °F 97% 30.12 in 5.0 mi SW 3.5 mph - N/A   Overcast
3:54 AM 77.0 °F - 75.0 °F 94% 30.11 in 6.0 mi Calm Calm - N/A   Overcast
4:54 AM 75.0 °F - 73.9 °F 96% 30.11 in 4.0 mi WSW 3.5 mph - N/A   Clear
5:54 AM 75.9 °F - 73.9 °F 94% 30.12 in 4.0 mi Calm Calm - N/A   Mostly Cloudy
6:29 AM 75.2 °F - 73.4 °F 94% 30.13 in 2.0 mi Calm Calm - N/A   Mostly Cloudy
6:54 AM 75.0 °F - 73.9 °F 96% 30.13 in 2.5 mi Calm Calm - N/A   Clear
7:07 AM 75.2 °F - 73.4 °F 94% 30.14 in 3.0 mi South 3.5 mph - N/A   Clear
7:54 AM 78.1 °F - 75.0 °F 90% 30.13 in 5.0 mi Calm Calm - N/A   Clear
8:54 AM 84.0 °F 91.2 °F 73.9 °F 72% 30.14 in 8.0 mi Calm Calm - N/A   Unknown
9:54 AM 87.1 °F 91.3 °F 69.1 °F 55% 30.13 in 10.0 mi Calm Calm - N/A   Clear
10:54 AM 88.0 °F 92.9 °F 70.0 °F 55% 30.14 in 10.0 mi South 3.5 mph - N/A   Clear
11:54 AM 90.0 °F 94.5 °F 69.1 °F 50% 30.14 in 10.0 mi SW 5.8 mph - N/A   Clear
12:54 PM 91.0 °F 97.6 °F 71.1 °F 52% 30.13 in 10.0 mi Variable 4.6 mph - N/A   Clear
1:54 PM 91.9 °F 98.4 °F 71.1 °F 50% 30.12 in 10.0 mi Variable 5.8 mph - N/A   Partly Cloudy
2:54 PM 91.9 °F 97.4 °F 70.0 °F 48% 30.09 in 10.0 mi SSW 5.8 mph - N/A   Clear
3:54 PM 93.0 °F 99.0 °F 70.0 °F 47% 30.08 in 10.0 mi SW 8.1 mph - N/A   Clear
4:54 PM 90.0 °F 96.4 °F 71.1 °F 54% 30.06 in 10.0 mi SSW 4.6 mph - N/A   Partly Cloudy
5:54 PM 91.0 °F 96.6 °F 70.0 °F 50% 30.05 in 10.0 mi SSW 5.8 mph - N/A   Clear
6:54 PM 88.0 °F 94.7 °F 72.0 °F 59% 30.06 in 9.0 mi SSW 4.6 mph - N/A   Clear
7:54 PM 86.0 °F 93.0 °F 73.0 °F 65% 30.07 in 9.0 mi SSW 4.6 mph - N/A   Clear
8:54 PM 82.9 °F 89.4 °F 73.9 °F 74% 30.09 in 10.0 mi Calm Calm - N/A   Clear
9:54 PM 82.0 °F 87.9 °F 73.9 °F 76% 30.11 in 10.0 mi SSW 4.6 mph - N/A   Overcast
10:54 PM 80.1 °F 84.5 °F 73.9 °F 81% 30.11 in 10.0 mi South 3.5 mph - N/A   Mostly Cloudy
11:54 PM 79.0 °F - 73.9 °F 84% 30.12 in 10.0 mi SSW 4.6 mph - N/A   Mostly Cloudy